{"data":{"norad_id":63476,"intl_designator":"2025-070S","name":"STARLINK-33718","alt_names":[],"object_type":"PAYLOAD","status":"ACTIVE","operator":null,"country":"US","launch_date":"2025-04-06","launch_site_code":"AFETR","launch_vehicle":null,"mission":null,"orbit_class":"UNKNOWN","rcs_meters":null,"size_class":null,"mass_kg":null,"dimensions":null,"purposes":["comms"],"wikipedia_slug":null,"has_3d_model":false,"image_url":null,"decayed_at":null,"tle_current":{"epoch":"2026-05-25T03:37:33.704256Z","epoch_age_seconds":62306,"freshness":"FRESH","line1":"1 63476U 25070S   26145.15108454  .00014715  00000+0  54298-3 0  9994","line2":"2 63476  43.0003 187.6856 0000981 276.8013  83.2727 15.27591295 64672","mean_motion":15.27591295,"eccentricity":9.81e-5,"inclination_deg":43.0003,"raan_deg":187.6856,"arg_perigee_deg":276.8013,"mean_anomaly_deg":83.2727,"bstar":0.00054298,"rev_number":6467,"period_min":94.266051705931,"perigee_km":482.34219591652,"apogee_km":483.68835399287,"semimajor_km":6861.1522749547,"source":"CELESTRAK","updated_at":"2026-05-25T13:38:20.008353Z"}}}